This is the latest recevied weather packets stored in our database for station/object KC4JIR. If no packets are shown the sender has not sent any weather packets the latest 10 day(s).
| Time | Temp. | Humidity | Pressure | Rain* | Wind** | Luminosity | Snow |
|---|---|---|---|---|---|---|---|
| 1778020256 | 28.33° C | 41% | 1011 hPa | 0 mm | - | 194 W/m² | - |
| 1778019953 | 28.89° C | 42% | 1011.1 hPa | 0 mm | - | 216 W/m² | - |
| 1778019649 | 28.89° C | 40% | 1011 hPa | 0 mm | - | 221 W/m² | - |
| 1778019346 | 28.89° C | 41% | 1011.1 hPa | 0 mm | - | 237 W/m² | - |
| 1778019042 | 29.44° C | 40% | 1011.3 hPa | 0 mm | - | 224 W/m² | - |
| 1778018739 | 28.89° C | 40% | 1011.3 hPa | 0 mm | - | 263 W/m² | - |
| 1778018437 | 29.44° C | 39% | 1011.4 hPa | 0 mm | - | 291 W/m² | - |
| 1778018135 | 29.44° C | 39% | 1011.1 hPa | 0 mm | - | 323 W/m² | - |
| 1778017833 | 28.89° C | 41% | 1011.2 hPa | 0 mm | - | 331 W/m² | - |
| 1778017531 | 28.89° C | 42% | 1011.4 hPa | 0 mm | - | 327 W/m² | - |
| 1778017227 | 28.89° C | 40% | 1011.4 hPa | 0 mm | - | 329 W/m² | - |
| 1778016925 | 29.44° C | 42% | 1011.3 hPa | 0 mm | - | 327 W/m² | - |
| 1778016621 | 29.44° C | 41% | 1011.5 hPa | 0 mm | - | 357 W/m² | - |
| 1778016318 | 28.89° C | 42% | 1011.6 hPa | 0 mm | - | 413 W/m² | - |
| 1778016015 | 28.89° C | 40% | 1011.6 hPa | 0 mm | - | 436 W/m² | - |
| 1778015712 | 28.89° C | 43% | 1011.6 hPa | 0 mm | - | 447 W/m² | - |
| 1778015409 | 28.89° C | 41% | 1011.3 hPa | 0 mm | - | 448 W/m² | - |
| 1778015105 | 29.44° C | 41% | 1011.4 hPa | 0 mm | - | 411 W/m² | - |
| 1778014802 | 28.89° C | 43% | 1011.3 hPa | 0 mm | - | 467 W/m² | - |
| 1778014501 | 29.44° C | 42% | 1011.3 hPa | 0 mm | - | 503 W/m² | - |
| 1778014197 | 28.89° C | 44% | 1011.1 hPa | 0 mm | - | 523 W/m² | - |
| 1778013895 | 29.44° C | 42% | 1011.3 hPa | 0 mm | - | 264 W/m² | - |
| 1778013592 | 29.44° C | 41% | 1011.4 hPa | 0 mm | - | 425 W/m² | - |
| 1778013288 | 28.89° C | 43% | 1011.8 hPa | 0 mm | - | 294 W/m² | - |
| 1778012985 | 29.44° C | 41% | 1011.8 hPa | 0 mm | - | 390 W/m² | - |
* Rain latest hour (hover to see other rain measurements)
** Current wind speed in m/s (hover to see current wind gust speed)